Temperature
18 18 18 18 18 18 18 18 18 18 18 18 18 18 18 18 18 18 18 18 18 18 18 17 17 17 17 17 17 17 17 17 17 17 17 17 17 17 17 17 16 16 16
18 18 18 18 18 18 18 18 18 18 18 18 18 18 18 18 18 18 17 18 17 17 17 17 17 17 17 17 17 17 17 17 17 17 17 17 16 16 16 16 16 16 16
18 18 18 18 18 18 18 18 18 18 18 18 18 18 18 18 18 18 17 17 17 17 17 17 17 17 17 17 17 17 17 17 17 17 17 16 16 16 16 16 16 16 16
18 18 18 18 18 18 18 18 18 18 18 18 18 18 18 18 18 18 18 18 17 17 17 17 17 17 17 17 17 17 17 17 17 16 16 16 16 16 16 16 16 16 16
18 18 18 18 18 18 18 18 18 18 18 18 18 18 17 17 17 17 17 17 17 17 17 17 17 17 17 17 17 17 17 17 16 16 16 16 16 16 16 16 16 16 16
18 18 18 18 18 18 18 18 18 18 18 17 17 17 17 17 17 17 17 17 17 17 17 17 17 17 17 17 17 17 17 17 17 16 16 16 16 16 16 16 16 16 16
18 18 18 18 18 18 18 18 18 18 18 17 17 17 17 17 17 17 17 17 17 17 17 17 17 17 17 17 17 17 17 17 17 17 16 16 16 16 16 16 16 16 16
18 18 18 18 18 18 18 18 18 18 17 17 17 17 17 17 17 17 17 17 17 17 17 17 17 17 17 17 17 17 17 17 17 16 16 16 16 16 16 16 16 16 16
18 18 18 18 18 18 18 18 18 17 17 17 17 17 17 17 17 17 17 17 17 17 17 17 17 17 17 17 17 17 17 16 16 16 16 16 16 16 16 16 16 16 16
18 18 18 18 18 18 18 18 18 17 17 17 17 17 17 17 17 17 17 17 17 17 17 17 17 17 16 16 16 16 16 16 16 16 16 16 16 16 16 16 16 16 16
18 18 18 18 18 18 18 18 18 17 17 17 17 17 17 17 17 17 17 17 17 17 17 16 16 16 16 16 16 16 16 16 16 16 16 16 16 16 16 16 16 16 16
18 18 18 18 18 18 18 18 17 17 17 17 17 17 17 17 17 17 17 17 17 17 16 16 16 16 16 16 16 16 16 16 16 16 16 16 16 16 16 16 16 16 16
18 18 18 18 18 18 17 17 17 17 17 17 17 17 17 16 16 16 16 16 16 16 16 16 16 16 16 16 16 16 16 16 16 16 16 16 16 16 16 16 16 16 16
18 18 18 18 18 17 17 17 17 17 17 17 17 17 16 16 16 16 16 16 16 16 16 16 16 16 16 16 16 16 16 16 16 15 15 15 15 15 15 15 15 15 15
18 18 18 17 17 17 17 17 17 17 17 17 16 16 16 16 16 16 16 16 16 15 16 16 16 16 16 16 16 15 15 15 15 15 15 15 15 15 15 15 15 15 15
18 18 18 17 17 17 17 17 17 16 16 16 16 16 16 16 16 16 16 15 15 15 15 15 15 15 15 15 15 15 15 15 15 15 15 15 15 15 15 15 15 15 15
18 18 18 17 17 17 17 17 17 16 16 16 16 16 16 16 16 16 15 15 15 15 15 15 15 15 15 15 15 15 15 15 15 15 15 14 14 15 15 15 15 15 15
18 18 17 17 17 17 17 16 16 16 16 16 16 16 16 16 15 15 15 15 15 15 15 15 15 15 15 15 15 15 15 15 15 15 14 14 14 14 14 14 14 14 14
18 17 17 17 17 17 16 16 16 16 16 16 16 16 16 15 15 15 15 15 15 15 15 14 14 14 14 14 14 14 14 14 14 14 14 14 14 14 14 14 14 14 14
18 17 17 17 17 16 16 16 16 16 16 16 16 16 15 15 15 15 15 15 15 14 14 14 14 14 14 14 14 14 14 14 14 14 14 14 14 14 14 14 14 14 14
17 17 17 17 17 16 16 16 16 16 16 16 15 15 15 15 15 15 15 14 14 14 14 14 14 13 13 14 14 14 13 14 14 14 14 14 13 13 13 13 13 13 13
17 17 17 17 16 16 16 16 16 15 15 15 15 15 15 15 15 14 14 14 14 14 14 14 13 13 13 13 13 13 13 13 13 13 13 13 13 13 13 13 13 13 13
17 17 17 16 16 16 16 16 16 15 15 15 15 15 15 15 15 14 14 14 14 14 13 13 13 13 13 13 13 13 13 13 13 13 13 13 13 13 13 13 13 13 13
17 17 17 16 16 16 16 16 15 15 15 15 15 15 15 14 14 14 14 14 14 14 13 13 13 13 13 13 13 13 12 12 13 13 12 12 13 12 12 12 13 13 13
17 17 17 16 16 16 16 15 15 15 15 15 14 14 14 14 14 14 14 14 14 14 13 13 13 13 13 13 13 12 12 12 12 12 12 12 12 12 12 12 12 12 12
17 17 17 16 16 16 16 15 15 15 15 14 14 14 14 14 14 14 14 14 13 13 13 13 13 13 13 13 12 12 12 12 12 12 12 12 12 12 12 12 12 12 12
Wind_Speed
2 1 1 1 1 1 1 1 1 2 2 2 2 3 2 2 2 1 2 3 3 4 5 5 7 7 6 6 6 5 5 6 6 5 6 7 8 8 9 9 9 9 9
2 2 1 1 1 1 1 2 1 1 1 1 1 2 2 2 2 2 1 2 2 3 4 5 5 6 6 6 5 6 6 6 6 7 7 7 8 9 9 10 10 10 10
3 2 1 1 1 1 2 2 2 2 2 2 1 1 1 1 2 2 2 2 2 3 4 4 5 5 5 5 5 5 6 6 6 7 7 8 9 9 10 10 10 10 10
4 3 2 1 1 2 2 2 2 2 2 1 1 1 1 1 1 1 2 2 2 2 3 4 4 5 4 5 5 5 6 6 6 6 6 8 8 9 9 9 10 10 10
4 3 2 1 2 2 2 2 2 2 2 1 1 1 1 1 0 1 1 2 2 2 2 3 4 5 5 5 5 5 5 5 6 6 6 6 7 7 8 8 8 8 8
4 4 2 2 2 2 2 2 2 2 2 1 1 2 2 1 1 0 1 1 1 2 2 2 3 4 4 5 4 4 5 5 5 5 5 5 6 6 7 8 8 9 9
4 3 2 2 2 2 2 2 2 2 2 2 2 2 2 2 1 1 0 0 0 1 2 2 2 2 2 3 4 4 4 5 5 5 6 6 6 6 6 7 8 9 9
4 3 3 2 2 2 2 2 2 2 1 2 2 2 1 2 2 1 1 0 1 1 1 2 2 2 3 2 3 4 4 5 5 5 5 6 6 6 7 7 7 8 8
4 4 4 3 3 3 2 1 2 3 2 1 1 2 2 1 1 2 1 1 1 1 1 2 2 3 3 3 3 4 5 5 5 6 6 6 6 6 7 7 7 7 8
3 4 4 3 3 2 2 2 2 2 3 2 0 1 1 2 2 1 2 1 1 1 2 2 2 3 3 3 4 5 6 6 6 6 6 6 6 6 7 7 7 8 7
2 3 4 3 2 2 2 2 2 2 2 2 1 1 1 1 1 1 1 2 2 2 2 2 2 2 3 3 4 5 5 5 5 6 6 6 6 6 6 6 6 7 7
1 2 3 3 2 2 2 2 2 2 2 2 1 1 1 1 1 1 2 2 2 2 2 2 2 2 3 3 4 5 6 5 5 6 6 5 5 5 5 5 5 6 6
2 3 3 2 2 2 2 2 2 2 2 2 2 1 1 1 1 2 1 1 1 2 2 1 2 2 3 3 4 6 6 5 6 6 6 5 5 5 5 4 5 5 6
4 3 3 3 3 3 3 2 2 2 2 2 2 2 1 1 1 2 2 2 1 2 2 3 1 2 3 4 5 5 5 6 6 5 5 5 4 4 4 5 5 6 5
3 4 4 4 3 3 3 3 2 2 2 2 2 2 1 1 1 2 2 2 2 2 3 2 2 2 2 4 5 5 5 6 6 6 5 5 5 4 4 4 5 6 5
3 4 4 4 3 3 3 3 3 2 2 1 1 1 1 1 1 1 2 2 2 3 3 2 2 3 3 3 4 4 5 7 6 6 6 6 5 5 4 4 4 4 5
5 5 5 4 4 4 3 3 3 3 3 1 1 2 2 1 1 1 1 2 2 2 3 3 2 2 2 3 3 4 4 4 4 5 6 6 5 5 5 5 5 5 5
6 6 5 5 4 4 4 4 4 4 4 3 3 2 2 2 1 1 1 2 2 3 3 3 2 2 2 3 3 3 3 3 3 4 5 6 6 6 6 6 6 6 6
6 6 6 6 5 4 4 4 4 4 4 4 4 3 3 3 3 2 2 2 2 2 2 2 3 2 2 2 3 3 3 3 3 3 4 5 6 6 5 5 6 6 6
7 7 7 6 6 5 5 5 5 5 4 4 4 4 4 4 4 4 3 3 2 2 2 2 2 2 2 2 1 2 3 2 3 3 3 3 3 4 4 4 4 4 5
8 7 6 5 5 5 5 5 5 5 5 4 4 4 4 5 6 4 3 3 3 2 2 2 2 2 2 2 2 2 3 3 2 2 2 2 2 2 3 4 5 5 4
6 6 6 6 5 5 5 7 6 5 5 4 4 4 4 3 4 4 5 5 5 5 4 3 3 3 4 3 2 2 2 2 2 1 1 3 2 2 3 3 4 4 4
6 5 5 5 5 5 6 7 8 5 4 4 4 4 4 3 3 3 4 4 5 6 7 5 5 5 5 4 3 3 3 3 3 2 1 3 2 2 3 3 4 4 3
6 6 6 6 5 5 6 7 7 5 4 4 4 4 4 3 3 2 3 3 3 4 5 5 5 6 5 4 4 4 3 3 3 2 2 2 2 2 3 3 3 4 4
5 5 6 6 6 5 6 7 6 4 3 4 3 3 3 3 3 2 2 3 3 4 3 4 5 5 5 5 4 2 1 2 3 2 2 2 1 2 2 2 2 3 4
5 6 5 6 6 6 6 7 7 4 3 3 3 3 4 4 4 4 4 3 4 4 3 2 2 2 2 2 3 3 3 3 2 2 2 2 1 1 2 1 2 2 2
Wind_Direction
114 108 94 78 73 83 96 94 84 81 87 91 107 124 130 137 135 150 167 166 176 180 183 187 193 197 204 208 207 213 222 229 230 239 244 237 226 222 223 219 219 222 224
148 128 102 84 56 76 118 121 119 104 96 100 102 123 146 153 160 157 147 158 180 193 194 193 196 202 211 219 220 225 231 239 235 237 241 239 233 227 227 229 228 225 224
163 147 116 88 58 76 98 103 92 90 102 108 103 118 153 169 165 163 162 173 199 212 208 209 210 211 219 229 236 235 237 242 239 239 240 238 237 233 232 233 233 230 231
160 146 129 122 102 97 103 108 98 88 83 86 79 51 82 107 130 173 172 190 204 219 222 224 228 229 232 240 246 244 241 242 242 246 246 241 240 238 237 235 236 236 238
147 139 132 131 117 102 98 115 106 116 111 90 95 76 59 62 70 138 158 190 207 214 228 243 245 242 244 244 247 246 243 236 236 240 246 243 239 235 234 233 234 237 239
140 132 123 115 114 106 90 96 107 98 107 109 96 66 47 44 70 96 186 186 203 211 223 237 249 252 250 246 251 252 246 238 240 236 236 235 236 234 232 234 238 238 239
139 132 127 115 113 119 119 116 113 98 75 82 86 55 31 38 58 40 28 116 265 234 220 230 240 250 259 257 256 250 250 250 249 245 241 237 239 244 241 241 242 241 241
145 147 137 131 125 118 99 96 107 117 97 88 112 103 29 359 7 12 20 139 260 250 231 240 247 254 263 271 275 264 260 255 254 260 260 256 252 249 249 249 248 245 243
154 151 147 144 135 136 145 154 149 143 145 101 101 139 146 212 312 339 349 345 305 278 271 259 261 270 267 271 281 277 263 256 259 268 274 271 266 257 255 255 253 248 246
152 151 148 144 141 143 154 176 155 154 149 164 115 75 141 150 147 321 326 321 310 284 285 282 279 270 267 265 270 270 262 258 260 269 274 268 266 261 261 257 256 254 251
143 149 151 151 151 149 154 139 123 137 145 162 160 141 106 79 106 153 278 315 325 302 285 270 276 274 265 260 268 277 276 268 268 271 268 268 267 269 270 271 267 261 256
154 156 156 159 159 158 164 163 149 141 142 145 147 146 152 151 169 170 219 265 292 302 299 274 264 275 267 268 271 284 281 275 271 269 267 269 269 273 277 279 276 269 261
190 195 174 169 168 180 175 159 151 158 162 155 169 174 174 186 173 168 170 233 276 299 310 294 264 273 274 274 277 285 282 282 277 269 268 270 271 269 275 278 275 272 267
197 188 176 174 174 169 167 156 159 180 162 169 177 168 164 188 177 179 175 176 258 295 291 287 291 267 272 267 278 285 285 285 280 272 265 266 270 272 275 281 277 272 269
185 174 171 171 169 164 162 156 161 169 152 168 181 179 191 216 203 204 190 182 182 241 268 273 286 287 288 274 280 274 275 284 278 272 269 269 267 268 275 280 279 271 264
169 163 171 173 169 168 166 159 160 158 146 176 186 169 197 224 210 206 205 203 198 204 245 261 263 293 304 304 295 279 275 285 279 273 267 268 268 266 274 278 277 274 264
173 175 179 178 179 180 175 168 175 164 170 197 204 188 217 207 204 224 212 202 206 203 240 273 271 290 287 300 308 297 282 277 281 276 271 268 268 270 270 271 270 266 263
184 182 179 178 187 189 185 180 187 183 184 197 211 202 227 214 214 227 216 221 222 216 222 262 284 292 282 295 299 300 308 292 279 287 275 269 267 270 273 270 273 268 262
183 179 177 183 190 192 191 195 192 193 198 206 209 209 224 211 230 229 222 230 236 233 222 238 272 283 290 312 317 314 311 311 295 294 280 274 271 271 276 274 275 270 264
187 188 190 192 194 195 198 200 197 198 207 217 218 218 224 219 227 228 229 231 225 223 222 234 265 285 290 303 306 304 305 306 303 311 309 298 286 276 279 281 278 274 268
196 192 190 195 198 199 210 206 202 204 210 224 232 231 229 225 226 226 233 226 217 217 220 233 256 273 282 290 280 279 284 300 289 293 299 304 302 292 282 280 276 274 268
187 182 187 191 197 211 213 205 200 205 209 217 232 241 237 233 240 246 247 234 218 217 219 225 239 247 256 251 259 268 274 294 293 288 286 293 287 281 280 282 292 280 266
185 186 192 195 204 215 211 207 200 195 207 220 226 235 245 243 228 247 262 257 240 237 225 219 232 240 244 236 236 256 253 256 266 282 272 286 285 284 286 289 292 276 260
184 190 195 202 206 219 210 203 197 199 210 223 226 225 228 244 241 239 252 266 266 258 249 236 237 246 247 237 223 236 248 261 273 265 231 264 285 282 296 290 280 255 247
187 193 193 198 204 220 212 204 193 198 211 229 233 229 220 234 248 221 220 256 277 283 272 267 257 255 254 240 212 206 225 250 273 268 218 238 267 286 288 290 291 260 247
194 195 202 204 206 214 213 205 193 200 212 228 235 234 228 238 244 219 214 227 253 269 286 307 305 298 280 257 208 209 215 229 254 262 224 215 237 259 277 281 303 306 270
Height
1546 1547 1548 1549 1549 1551 1552 1553 1554 1555 1556 1556 1557 1558 1558 1559 1559 1560 1560 1561 1561 1561 1562 1562 1562 1563 1563 1563 1564 1564 1565 1565 1566 1566 1567 1567 1568 1568 1569 1570 1570 1571 1572
1547 1548 1549 1549 1550 1551 1552 1553 1554 1555 1556 1557 1557 1558 1558 1559 1559 1560 1560 1561 1561 1561 1561 1561 1562 1562 1562 1562 1563 1563 1563 1564 1564 1564 1565 1565 1566 1567 1567 1568 1568 1569 1570
1548 1549 1549 1550 1551 1552 1553 1554 1554 1555 1556 1557 1557 1558 1558 1559 1559 1560 1560 1560 1560 1560 1561 1561 1561 1561 1561 1561 1561 1562 1562 1562 1563 1563 1563 1564 1564 1564 1565 1566 1566 1567 1567
1548 1549 1550 1551 1551 1552 1553 1554 1555 1555 1556 1556 1557 1557 1558 1559 1559 1559 1560 1560 1560 1560 1560 1560 1560 1560 1560 1560 1560 1561 1561 1561 1561 1561 1562 1562 1562 1562 1563 1563 1564 1564 1565
1549 1550 1550 1551 1552 1552 1553 1554 1555 1555 1556 1556 1557 1557 1558 1558 1559 1559 1559 1559 1560 1560 1560 1560 1560 1560 1559 1559 1560 1560 1560 1560 1560 1560 1560 1560 1560 1560 1561 1561 1561 1562 1562
1549 1550 1550 1551 1551 1552 1552 1553 1554 1555 1555 1556 1556 1557 1557 1557 1558 1558 1558 1559 1559 1559 1559 1559 1559 1559 1559 1559 1559 1559 1559 1558 1558 1558 1558 1558 1558 1558 1558 1559 1559 1560 1560
1549 1550 1550 1551 1551 1551 1552 1553 1554 1554 1555 1555 1556 1556 1557 1557 1557 1557 1558 1558 1558 1559 1559 1559 1558 1558 1558 1558 1558 1557 1557 1557 1557 1557 1557 1556 1556 1556 1556 1556 1557 1557 1557
1549 1550 1550 1550 1551 1551 1552 1552 1553 1553 1554 1554 1555 1555 1556 1557 1556 1556 1557 1557 1557 1558 1558 1558 1558 1557 1557 1557 1556 1556 1556 1555 1555 1555 1555 1554 1554 1554 1554 1554 1554 1554 1554
1549 1549 1550 1550 1550 1551 1551 1551 1552 1553 1553 1554 1554 1555 1555 1555 1556 1556 1556 1556 1556 1556 1556 1556 1556 1556 1555 1555 1555 1555 1554 1554 1554 1553 1553 1552 1552 1552 1552 1552 1552 1551 1552
1549 1549 1549 1550 1550 1550 1551 1551 1552 1552 1552 1553 1553 1554 1555 1554 1555 1555 1556 1556 1555 1555 1555 1555 1555 1554 1554 1554 1553 1553 1553 1552 1552 1551 1551 1550 1550 1550 1549 1549 1549 1549 1549
1548 1548 1549 1549 1550 1550 1550 1551 1551 1551 1552 1552 1553 1553 1554 1554 1554 1554 1554 1554 1555 1554 1554 1554 1553 1553 1552 1552 1552 1551 1551 1550 1549 1549 1548 1548 1548 1547 1547 1547 1546 1546 1546
1547 1548 1548 1549 1549 1549 1549 1550 1550 1551 1551 1551 1552 1552 1552 1553 1553 1553 1553 1553 1553 1553 1552 1552 1552 1551 1551 1550 1550 1550 1549 1548 1547 1547 1546 1546 1545 1545 1544 1544 1543 1543 1543
1546 1547 1547 1548 1548 1548 1548 1549 1549 1550 1550 1550 1550 1551 1551 1551 1552 1552 1552 1551 1551 1551 1550 1550 1550 1549 1549 1548 1548 1547 1547 1546 1545 1544 1544 1543 1543 1542 1542 1541 1541 1540 1540
1544 1545 1546 1546 1547 1547 1548 1548 1548 1548 1548 1548 1549 1549 1549 1549 1550 1550 1550 1550 1549 1549 1548 1548 1548 1547 1547 1546 1545 1545 1544 1544 1543 1542 1541 1541 1540 1540 1539 1539 1538 1538 1538
1542 1543 1544 1545 1545 1545 1546 1546 1546 1547 1547 1547 1547 1547 1547 1547 1548 1548 1548 1548 1549 1547 1546 1546 1546 1545 1544 1543 1543 1542 1542 1541 1540 1540 1539 1539 1538 1537 1537 1536 1536 1535 1535
1540 1541 1542 1543 1543 1543 1544 1544 1544 1545 1545 1545 1545 1546 1546 1546 1546 1546 1546 1546 1546 1546 1544 1543 1543 1542 1541 1541 1540 1539 1539 1538 1537 1537 1536 1536 1535 1535 1534 1534 1533 1532 1532
1538 1539 1539 1540 1541 1541 1542 1542 1542 1543 1543 1543 1543 1543 1544 1544 1544 1544 1543 1543 1543 1543 1541 1541 1540 1539 1539 1538 1537 1537 1536 1535 1534 1534 1533 1533 1532 1532 1531 1531 1530 1530 1530
1535 1536 1537 1537 1538 1539 1540 1540 1540 1541 1541 1541 1541 1541 1541 1541 1541 1541 1541 1541 1540 1540 1539 1538 1537 1537 1536 1535 1534 1533 1533 1532 1531 1531 1530 1530 1529 1529 1528 1528 1527 1527 1526
1531 1533 1534 1534 1535 1536 1537 1538 1538 1538 1538 1538 1538 1539 1539 1539 1539 1539 1538 1538 1538 1537 1537 1536 1535 1534 1533 1532 1531 1531 1530 1529 1528 1527 1527 1526 1525 1525 1525 1524 1524 1523 1523
1528 1529 1530 1531 1533 1534 1534 1535 1535 1536 1536 1536 1536 1536 1536 1536 1536 1536 1536 1535 1535 1535 1534 1533 1532 1531 1530 1530 1529 1528 1527 1526 1525 1524 1523 1522 1522 1522 1521 1521 1520 1520 1519
1525 1526 1527 1528 1529 1530 1531 1532 1532 1533 1533 1533 1533 1533 1533 1533 1533 1533 1533 1533 1532 1532 1531 1530 1529 1528 1528 1527 1526 1525 1524 1523 1522 1521 1520 1519 1519 1518 1518 1517 1517 1516 1516
1522 1523 1524 1525 1526 1527 1528 1529 1529 1529 1530 1530 1530 1530 1530 1529 1530 1530 1530 1529 1529 1528 1528 1527 1526 1525 1524 1524 1523 1522 1521 1520 1519 1519 1517 1517 1516 1515 1514 1514 1514 1513 1513
1518 1520 1521 1522 1523 1524 1525 1525 1526 1526 1526 1526 1526 1526 1526 1526 1526 1526 1526 1525 1525 1525 1525 1524 1523 1522 1521 1521 1520 1519 1518 1518 1517 1516 1515 1513 1513 1512 1511 1511 1511 1510 1510
1515 1516 1517 1518 1519 1520 1521 1522 1522 1522 1522 1522 1522 1522 1522 1522 1522 1522 1522 1521 1521 1521 1520 1520 1519 1519 1518 1517 1517 1517 1516 1515 1514 1513 1512 1511 1510 1509 1508 1508 1507 1507 1507
1511 1512 1514 1515 1516 1516 1517 1518 1518 1518 1517 1517 1518 1518 1518 1518 1518 1518 1518 1517 1517 1517 1517 1517 1516 1515 1515 1514 1513 1513 1512 1512 1510 1510 1510 1508 1507 1506 1506 1505 1505 1504 1504
1507 1509 1510 1511 1511 1512 1513 1514 1514 1514 1513 1513 1514 1514 1514 1514 1514 1514 1514 1514 1513 1514 1514 1513 1513 1512 1512 1511 1510 1510 1509 1509 1508 1507 1507 1506 1505 1504 1503 1502 1502 1501 1501